Simultaneous Nadir Overpasses (SNOs) Predictions

Prediction of SNOs between AQUA and NOAA-19 Satellite Orbit:

Table of predicted SNOs for the next 14.0 days since TLE Epoch: 8/31/2012
Index Date (AQUA) Time (AQUA) AQUA Lat,Lon Date (NOAA-19) Time (NOAA-19) NOAA-19 Lat,Lon Distance(km) Time Diff (sec)
1 09/02/2012 09:47:59 -46.41, 65.48 09/02/2012 09:48:05 -46.35, 65.65 14.51 6
2 09/02/2012 10:20:32 70.13, 25.32 09/02/2012 10:21:44 69.73, 23.03 98.20 72
3 09/04/2012 13:42:52 46.02,-173.37 09/04/2012 13:41:47 45.93,-172.91 36.44 65
4 09/04/2012 14:31:56 -47.55, -5.16 09/04/2012 14:32:22 -47.55, -5.01 10.87 26
5 09/06/2012 18:27:08 46.01, 115.56 09/06/2012 18:26:24 45.95, 115.95 30.32 44
6 09/06/2012 19:15:50 -48.84, -75.71 09/06/2012 19:16:38 -48.80, -75.63 7.53 48
7 09/08/2012 23:11:23 46.05, 44.51 09/08/2012 23:11:01 45.98, 44.80 24.19 22
8 09/08/2012 23:59:44 -50.12,-146.25 09/09/2012 00:00:53 -50.11,-146.20 3.73 69
9 09/11/2012 03:55:39 46.01, -26.57 09/11/2012 03:55:39 45.94, -26.36 17.98 0
10 09/11/2012 04:35:16 -78.86,-178.30 09/11/2012 04:36:29 -78.46,-176.35 62.10 73
11 09/13/2012 07:50:30 -46.06, 94.73 09/13/2012 07:49:22 -45.66, 95.12 54.04 68
12 09/13/2012 08:39:33 47.26, -97.17 09/13/2012 08:39:54 47.23, -96.99 13.68 21




NCC Satellite Simultaneous Nadir Overpasses (SNOs) Prediction Service
